Wind_Speed
18 19 19 20 21 22 22 23 24 26 27 28 30 31 33 35 37 39 40 39 39 40 39 39 39 39 38 38 38 37 35 34 33 31 30 29 29 29 29 29 30 28 26 24
16 17 17 19 21 22 23 24 24 25 27 29 31 33 35 38 40 41 41 41 41 41 40 40 40 40 40 41 40 40 39 37 36 35 34 33 33 33 33 32 32 31 29 27
15 16 18 20 21 21 22 22 22 23 25 28 31 33 36 38 40 42 43 44 44 43 42 41 41 41 41 42 42 42 41 40 39 37 36 36 35 35 35 33 33 32 31 30
14 16 17 18 18 19 20 22 22 24 25 27 30 34 35 37 39 41 42 43 44 43 43 41 41 41 41 41 42 42 41 40 39 38 38 37 36 36 36 36 35 32 32 31
12 13 15 16 17 18 20 21 22 23 25 26 28 31 33 34 35 37 38 40 40 40 40 39 38 38 38 38 39 39 40 39 39 38 37 37 36 35 35 35 33 32 31 31
10 12 14 16 18 18 19 20 21 22 22 23 23 25 27 27 29 31 33 35 35 34 35 36 35 36 35 34 35 36 37 37 37 36 36 35 34 33 33 33 33 33 33 32
10 12 14 16 18 18 19 19 19 19 19 19 19 21 22 23 24 25 26 28 30 32 32 32 34 34 33 32 32 32 33 34 34 34 34 33 33 32 32 33 33 33 34 34
11 13 14 16 17 18 18 17 17 16 17 16 17 17 19 20 21 21 20 20 22 25 27 26 26 28 29 30 30 31 30 32 33 33 33 33 33 34 34 34 34 34 34 35
15 15 16 16 16 16 17 16 16 15 15 14 14 15 16 17 16 17 17 17 15 16 17 21 22 23 23 24 27 28 29 30 31 31 31 32 33 33 34 34 34 35 35 35
16 16 16 16 15 15 16 16 16 15 15 14 12 13 13 12 12 12 13 12 12 12 13 13 13 16 17 19 22 23 26 27 28 28 28 29 30 31 32 32 32 32 31 32
16 16 16 15 14 15 17 17 17 16 15 15 13 14 14 14 13 13 12 10 10 9 9 9 9 9 10 12 15 17 19 21 21 22 22 24 25 26 26 26 26 26 26 26
16 17 16 16 16 17 18 18 18 19 18 17 16 17 17 17 16 15 14 12 11 11 10 8 6 6 4 5 6 8 11 13 14 15 16 17 17 17 18 17 17 16 17 17
17 17 16 16 17 18 18 18 19 20 20 19 19 19 20 19 18 17 16 16 14 14 13 11 8 7 4 2 2 1 2 4 6 6 8 8 8 9 9 9 9 10 9 9
18 18 18 18 18 18 18 19 20 21 21 20 20 20 20 20 19 18 18 18 17 17 16 14 13 12 11 10 8 9 8 5 4 3 3 2 1 1 1 2 3 3 3 4
19 19 19 18 18 18 19 19 20 20 20 21 21 21 22 22 23 21 20 21 20 19 17 17 18 17 16 15 14 14 12 12 11 10 9 8 7 6 5 4 4 4 4 5
19 19 19 18 18 18 19 20 20 20 20 20 21 20 21 21 21 22 21 21 22 22 21 20 20 20 19 19 18 16 15 13 12 11 10 9 8 8 7 6 6 6 6 7
18 18 18 18 18 18 19 19 20 20 20 20 20 20 20 20 20 20 20 20 20 20 20 20 19 19 19 19 18 17 16 15 14 13 12 11 10 9 9 8 8 8 8 9
18 17 18 18 18 19 19 19 19 19 19 19 19 19 19 19 19 19 19 19 19 20 20 20 19 19 19 19 18 18 17 17 16 15 14 13 12 11 11 11 10 10 10 10
18 18 19 19 19 19 19 18 18 18 18 18 18 19 18 18 18 19 19 19 19 19 19 20 20 19 19 19 19 19 18 18 17 17 17 16 15 15 14 14 13 12 11 11
17 18 18 19 19 19 18 18 17 17 18 18 18 18 18 18 19 19 19 20 19 19 19 19 19 19 19 19 19 20 19 19 20 19 19 18 17 17 16 16 16 15 14 13
15 17 18 18 18 18 18 18 17 17 18 17 18 18 18 18 19 19 20 20 20 19 19 19 19 19 19 20 20 20 20 20 20 20 20 20 19 19 18 18 18 18 17 16
12 15 16 17 17 17 18 17 17 17 17 17 17 17 17 18 18 18 19 19 19 19 19 19 19 19 19 19 20 20 21 21 21 21 21 21 21 21 20 20 20 20 19 19
9 11 14 16 17 17 17 17 17 16 16 16 16 16 16 16 16 17 17 17 17 18 18 18 19 19 19 19 19 19 20 20 21 21 21 22 22 22 22 22 22 22 22 21
8 9 11 13 15 16 16 17 17 16 15 15 15 15 14 14 14 14 15 15 16 16 16 17 17 17 17 17 17 18 18 19 19 19 20 21 21 22 22 23 23 23 23 23
6 7 9 11 13 14 14 15 16 16 14 13 13 13 13 12 12 12 13 13 14 14 14 15 15 16 16 15 15 16 16 17 18 18 19 19 20 21 22 22 23 23 23 24
6 7 8 9 10 12 12 13 14 15 15 13 12 12 11 11 10 10 10 10 11 11 12 12 13 13 14 14 14 14 15 16 16 17 17 18 19 20 21 21 22 23 23 24
Wind_Direction
271 277 282 284 283 282 282 282 283 283 282 279 276 274 271 268 268 269 268 268 268 266 266 266 266 264 263 262 262 263 264 264 265 264 263 263 264 266 267 269 272 270 266 267
279 282 285 285 286 288 288 288 287 286 285 281 279 276 274 272 271 270 270 271 270 268 267 266 264 262 261 261 261 261 261 261 263 263 265 265 265 266 266 269 270 270 268 264
288 292 293 294 295 297 297 295 293 290 287 283 282 280 278 276 274 272 271 271 271 269 267 264 261 259 258 259 259 259 260 260 260 261 262 263 263 265 267 267 266 268 267 265
302 302 301 304 306 305 302 301 298 296 291 285 281 279 278 276 274 272 271 271 269 268 266 261 260 258 256 256 256 257 258 259 260 259 260 261 262 263 265 266 266 266 264 266
316 313 313 316 316 311 308 305 303 301 296 290 286 282 279 276 272 271 272 272 270 268 265 261 259 256 254 252 253 255 256 257 259 259 258 259 259 261 263 265 266 269 269 270
331 325 322 322 323 318 314 311 309 306 303 297 292 288 288 284 279 276 274 274 272 269 266 262 259 255 253 252 252 252 254 254 256 257 258 258 258 258 260 264 270 271 272 273
342 336 331 330 328 327 324 321 319 317 314 309 303 298 295 294 289 287 283 276 273 272 271 268 262 260 256 253 252 252 253 252 253 254 255 256 257 258 261 264 268 271 272 275
353 346 339 336 334 335 336 333 331 328 325 321 316 309 305 300 297 295 295 292 286 280 274 272 268 264 260 255 255 254 255 253 252 253 255 256 258 260 262 266 269 271 271 271
0 354 349 346 344 346 347 345 342 343 340 335 331 327 316 312 311 306 309 313 306 303 290 279 273 267 265 262 258 256 256 255 253 254 256 257 260 262 265 268 269 270 270 270
6 3 359 357 358 1 360 360 360 360 356 351 346 347 347 339 338 332 326 326 326 320 312 301 288 273 268 267 261 258 258 257 255 256 259 261 263 265 267 270 271 270 270 272
15 13 12 12 13 13 14 13 14 16 14 13 15 15 15 16 14 7 359 354 347 342 335 319 310 293 279 268 261 260 259 258 257 260 263 265 266 268 270 270 271 270 270 270
24 20 20 23 25 26 25 25 28 31 31 33 35 35 36 35 32 29 26 24 16 8 4 354 345 333 309 287 273 261 258 255 257 261 266 268 270 270 269 268 270 270 269 266
29 25 25 28 31 32 30 30 34 36 37 40 41 40 39 38 37 39 40 40 37 31 31 33 33 26 26 21 18 339 265 255 254 262 269 271 270 270 269 269 269 268 266 263
33 30 28 30 35 36 36 37 39 38 39 40 42 43 41 40 43 46 47 46 44 44 45 47 54 64 66 70 79 82 84 83 90 84 79 82 56 9 329 306 302 293 267 259
34 32 29 31 35 38 39 40 41 40 40 41 43 45 46 48 50 52 53 54 53 54 57 61 64 70 71 73 77 80 80 77 74 72 68 60 52 43 33 21 5 346 321 303
35 34 31 30 34 39 41 41 42 42 41 41 44 46 45 46 49 52 55 56 58 60 61 63 65 67 69 72 73 72 71 67 63 59 53 48 42 32 24 9 353 336 318 303
38 37 35 34 35 39 42 40 41 41 41 42 43 45 46 47 49 51 54 56 58 59 61 62 63 66 68 69 69 67 66 63 60 55 49 42 33 23 14 4 351 338 325 314
39 38 36 36 36 40 40 39 40 41 41 40 42 44 47 47 49 52 54 57 59 60 62 64 66 67 66 65 64 62 60 57 54 49 43 38 33 28 20 10 360 349 337 328
37 37 37 36 37 39 39 38 38 39 40 39 41 43 48 50 53 54 56 59 62 63 63 64 66 65 64 63 61 59 57 54 51 48 45 42 40 35 28 20 13 4 354 342
36 36 36 36 36 37 37 37 37 38 41 39 41 44 49 53 55 56 59 62 64 65 65 65 64 63 62 61 59 57 56 54 52 50 48 45 41 37 32 27 23 18 11 2
34 35 35 34 34 36 35 36 37 39 40 41 44 48 52 55 57 60 61 63 64 65 65 64 63 62 61 60 59 58 57 55 52 50 48 45 42 39 36 33 29 26 22 16
30 33 34 34 34 34 33 34 37 40 41 43 45 49 53 56 58 61 62 63 63 64 64 63 63 62 61 60 58 57 55 54 53 50 47 45 43 42 40 37 33 29 26 22
22 27 30 32 33 34 33 33 35 38 41 43 46 50 53 56 59 61 62 62 62 62 62 62 62 60 59 58 56 55 54 53 52 49 47 45 44 43 41 38 35 33 30 28
8 15 21 26 28 30 31 31 33 36 40 43 46 49 52 55 59 62 63 62 61 61 61 60 59 57 57 56 54 53 51 49 48 46 44 42 41 40 38 37 35 34 32 31
341 356 6 15 21 26 28 30 32 35 38 41 44 47 50 53 58 61 63 62 60 58 58 57 55 53 52 51 50 49 47 46 45 42 40 39 38 36 35 34 34 34 33 32
314 330 345 357 6 15 22 26 30 33 35 38 40 43 46 50 54 58 60 59 57 54 53 51 49 48 48 47 46 45 43 41 40 37 35 33 33 31 31 31 31 32 33 33
Height
5898 5898 5896 5895 5893 5891 5889 5887 5885 5883 5881 5880 5877 5876 5874 5873 5871 5870 5869 5869 5868 5868 5868 5869 5869 5869 5869 5870 5870 5871 5872 5874 5875 5876 5877 5878 5879 5879 5879 5878 5878 5879 5879 5879
5896 5894 5892 5889 5887 5885 5883 5881 5879 5877 5874 5871 5869 5867 5865 5863 5862 5860 5859 5858 5858 5857 5858 5858 5858 5858 5858 5859 5860 5861 5862 5864 5866 5868 5869 5869 5870 5870 5870 5871 5870 5870 5871 5871
5891 5889 5886 5884 5882 5879 5877 5875 5873 5871 5867 5863 5860 5858 5856 5853 5851 5849 5848 5846 5846 5846 5846 5846 5847 5847 5848 5848 5849 5851 5852 5854 5856 5858 5859 5860 5861 5862 5861 5862 5862 5862 5861 5862
5887 5884 5882 5879 5877 5874 5872 5869 5866 5863 5860 5857 5853 5849 5846 5843 5841 5838 5836 5835 5834 5833 5833 5834 5835 5836 5837 5838 5839 5841 5842 5844 5846 5848 5850 5851 5853 5853 5854 5853 5853 5853 5852 5852
5884 5881 5878 5875 5873 5869 5866 5862 5859 5856 5852 5848 5844 5840 5837 5834 5831 5828 5826 5824 5822 5821 5821 5822 5823 5824 5826 5827 5829 5831 5833 5834 5836 5838 5840 5842 5844 5845 5845 5844 5844 5843 5843 5843
5881 5878 5875 5872 5868 5864 5861 5857 5853 5849 5845 5840 5836 5833 5829 5825 5822 5820 5817 5814 5813 5811 5811 5811 5812 5814 5816 5818 5819 5821 5823 5825 5827 5829 5831 5833 5835 5836 5836 5837 5837 5836 5836 5836
5880 5876 5872 5869 5864 5860 5856 5852 5848 5843 5838 5834 5830 5825 5822 5818 5815 5812 5810 5807 5804 5803 5801 5801 5802 5804 5806 5809 5811 5813 5814 5816 5818 5820 5822 5824 5826 5828 5829 5829 5830 5829 5829 5829
5878 5875 5870 5866 5862 5857 5852 5848 5844 5839 5834 5829 5825 5821 5817 5813 5809 5806 5803 5799 5797 5796 5795 5794 5794 5796 5798 5801 5803 5805 5806 5808 5810 5812 5814 5816 5818 5820 5821 5821 5822 5821 5821 5821
5875 5872 5867 5863 5859 5855 5850 5845 5841 5836 5831 5826 5822 5818 5814 5808 5805 5802 5798 5795 5793 5792 5790 5789 5789 5790 5791 5793 5795 5797 5799 5801 5802 5805 5807 5808 5810 5811 5812 5813 5813 5813 5813 5812
5874 5870 5866 5862 5858 5853 5849 5843 5839 5834 5829 5824 5821 5816 5812 5807 5803 5799 5796 5794 5792 5789 5787 5786 5785 5785 5785 5787 5788 5790 5792 5794 5796 5798 5800 5801 5802 5803 5804 5804 5804 5804 5804 5803
5874 5870 5866 5862 5857 5853 5848 5844 5839 5834 5829 5824 5820 5818 5811 5806 5802 5798 5796 5793 5791 5788 5786 5784 5783 5782 5782 5783 5784 5786 5787 5789 5791 5793 5795 5796 5796 5797 5797 5798 5797 5797 5797 5796
5874 5870 5866 5862 5858 5853 5849 5844 5840 5835 5830 5826 5822 5821 5812 5808 5804 5800 5797 5794 5791 5789 5786 5785 5783 5782 5781 5781 5782 5783 5784 5786 5788 5790 5791 5791 5792 5792 5792 5792 5792 5791 5791 5790
5875 5872 5868 5863 5861 5855 5850 5846 5841 5837 5833 5828 5824 5822 5815 5810 5806 5803 5800 5796 5794 5791 5788 5786 5784 5783 5782 5782 5782 5782 5784 5785 5786 5787 5788 5788 5789 5789 5789 5789 5788 5788 5787 5787
5876 5872 5870 5866 5861 5856 5852 5848 5844 5840 5836 5831 5827 5823 5818 5814 5810 5806 5803 5800 5797 5795 5792 5790 5788 5787 5785 5784 5784 5784 5786 5786 5787 5787 5788 5787 5788 5787 5787 5787 5786 5785 5785 5785
5877 5874 5870 5867 5862 5858 5855 5851 5846 5843 5839 5835 5831 5826 5823 5819 5815 5811 5808 5805 5802 5799 5797 5795 5793 5791 5790 5789 5788 5788 5789 5789 5789 5789 5789 5789 5788 5788 5787 5786 5785 5785 5784 5783
5879 5875 5872 5869 5865 5861 5857 5853 5849 5846 5842 5838 5834 5831 5827 5823 5819 5816 5813 5810 5807 5805 5803 5801 5798 5797 5796 5795 5794 5793 5793 5792 5792 5791 5791 5790 5789 5788 5787 5786 5785 5784 5783 5782
5881 5878 5875 5872 5868 5864 5860 5856 5852 5849 5845 5842 5838 5835 5831 5827 5824 5821 5818 5815 5813 5810 5808 5806 5804 5803 5801 5800 5799 5798 5797 5796 5795 5794 5793 5792 5790 5789 5787 5786 5784 5783 5781 5780
5883 5880 5877 5874 5871 5866 5865 5859 5855 5852 5849 5845 5842 5838 5835 5832 5829 5825 5823 5820 5817 5815 5813 5811 5809 5808 5806 5805 5803 5802 5801 5799 5798 5796 5795 5793 5791 5789 5788 5786 5784 5782 5780 5778
5885 5882 5879 5875 5872 5869 5866 5862 5858 5855 5852 5849 5845 5842 5839 5836 5833 5830 5827 5824 5822 5820 5818 5816 5815 5813 5811 5810 5808 5806 5804 5803 5801 5799 5797 5795 5793 5791 5788 5786 5783 5781 5778 5776
5887 5884 5881 5877 5874 5871 5869 5864 5861 5859 5855 5852 5848 5845 5842 5840 5837 5835 5832 5829 5827 5825 5823 5821 5819 5818 5816 5814 5812 5810 5808 5806 5804 5802 5800 5797 5795 5792 5790 5787 5784 5781 5778 5775
5889 5886 5883 5879 5876 5873 5870 5866 5863 5861 5859 5855 5851 5849 5846 5843 5841 5839 5836 5834 5832 5830 5828 5826 5824 5822 5821 5819 5817 5815 5813 5810 5808 5806 5803 5800 5797 5795 5792 5789 5785 5782 5779 5775
5891 5888 5885 5881 5878 5878 5872 5868 5866 5864 5860 5857 5854 5852 5849 5847 5845 5843 5840 5838 5836 5834 5833 5831 5829 5827 5825 5823 5821 5819 5817 5815 5812 5810 5807 5804 5800 5797 5794 5791 5787 5784 5780 5776
5892 5890 5887 5884 5883 5878 5874 5871 5868 5865 5862 5859 5857 5855 5853 5850 5848 5846 5844 5842 5841 5839 5837 5835 5834 5832 5830 5828 5826 5824 5821 5819 5816 5814 5811 5808 5804 5801 5797 5794 5790 5786 5782 5778
5892 5890 5887 5885 5882 5879 5876 5873 5870 5867 5864 5862 5859 5857 5855 5853 5851 5850 5848 5846 5845 5843 5841 5839 5838 5836 5834 5832 5830 5828 5825 5823 5820 5817 5814 5811 5808 5804 5801 5797 5793 5789 5785 5780
5891 5889 5887 5885 5883 5880 5877 5874 5872 5869 5866 5864 5862 5859 5857 5856 5854 5852 5851 5849 5848 5846 5845 5843 5841 5839 5837 5835 5833 5831 5829 5826 5824 5821 5818 5815 5811 5808 5804 5801 5797 5792 5788 5783
5890 5888 5887 5885 5883 5881 5879 5876 5873 5870 5868 5865 5863 5861 5859 5858 5856 5855 5853 5852 5850 5849 5848 5846 5844 5842 5840 5838 5836 5834 5832 5829 5827 5824 5821 5818 5815 5811 5808 5804 5800 5796 5792 5787